TimeEST,TemperatureF,Dew PointF,Humidity,Sea Level PressureIn,VisibilityMPH,Wind Direction,Wind SpeedMPH,Gust SpeedMPH,PrecipitationIn,Events,Conditions,WindDirDegrees,DateUTC
12:53 AM,42.1,30.9,65,30.32,10.0,ENE,6.9,-,N/A,,Clear,60,2013-02-18 05:53:00
1:53 AM,41.0,30.0,65,30.32,10.0,ENE,6.9,-,N/A,,Clear,60,2013-02-18 06:53:00
2:53 AM,39.9,30.0,68,30.30,10.0,NE,5.8,-,N/A,,Clear,50,2013-02-18 07:53:00
3:53 AM,39.9,30.9,70,30.30,10.0,NE,5.8,-,N/A,,Clear,50,2013-02-18 08:53:00
4:53 AM,41.0,33.1,73,30.29,10.0,NE,4.6,-,N/A,,Clear,40,2013-02-18 09:53:00
5:53 AM,41.0,30.9,67,30.30,10.0,NE,4.6,-,N/A,,Clear,50,2013-02-18 10:53:00
6:53 AM,42.1,28.9,60,30.30,10.0,NE,8.1,-,N/A,,Clear,40,2013-02-18 11:53:00
7:53 AM,46.0,28.0,50,30.32,10.0,NE,8.1,-,N/A,,Clear,50,2013-02-18 12:53:00
8:53 AM,51.1,26.1,38,30.32,10.0,NE,11.5,-,N/A,,Clear,50,2013-02-18 13:53:00
9:53 AM,57.0,32.0,39,30.32,10.0,NE,12.7,-,N/A,,Clear,50,2013-02-18 14:53:00
10:53 AM,62.1,39.0,43,30.32,10.0,East,12.7,18.4,N/A,,Clear,90,2013-02-18 15:53:00
11:53 AM,66.9,43.0,42,30.30,10.0,East,16.1,21.9,N/A,,Partly Cloudy,90,2013-02-18 16:53:00
12:53 PM,70.0,45.0,41,30.27,10.0,East,11.5,23.0,N/A,,Scattered Clouds,90,2013-02-18 17:53:00
1:53 PM,72.0,44.1,37,30.23,10.0,East,15.0,-,N/A,,Partly Cloudy,100,2013-02-18 18:53:00
2:53 PM,73.0,43.0,34,30.22,10.0,ENE,15.0,-,N/A,,Partly Cloudy,60,2013-02-18 19:53:00
3:53 PM,72.0,43.0,35,30.21,10.0,ESE,8.1,-,N/A,,Scattered Clouds,120,2013-02-18 20:53:00
4:53 PM,72.0,44.1,37,30.21,10.0,East,11.5,-,N/A,,Mostly Cloudy,90,2013-02-18 21:53:00
5:53 PM,68.0,45.0,43,30.21,10.0,East,10.4,-,N/A,,Partly Cloudy,90,2013-02-18 22:53:00
6:53 PM,64.9,48.0,54,30.22,10.0,East,6.9,-,N/A,,Clear,90,2013-02-18 23:53:00
7:53 PM,62.1,48.9,62,30.22,10.0,East,5.8,-,N/A,,Clear,80,2013-02-19 00:53:00
8:53 PM,60.1,48.9,67,30.23,10.0,East,5.8,-,N/A,,Partly Cloudy,80,2013-02-19 01:53:00
9:53 PM,57.9,48.9,72,30.24,10.0,ENE,5.8,-,N/A,,Clear,60,2013-02-19 02:53:00
10:53 PM,57.0,48.9,74,30.24,10.0,NE,4.6,-,N/A,,Partly Cloudy,50,2013-02-19 03:53:00
11:53 PM,55.0,48.9,80,30.21,10.0,ENE,5.8,-,N/A,,Clear,60,2013-02-19 04:53:00